ICEYE-X13 (48916 NORAD) Tracking and Keplerian Element Data

This shows tracking and keplerian element data for the satellite.

Feedback or suggestion? Click here.




ElementValue
Catalog48916
NameICEYE-X13
Epoch Orbit1682
Epoch Day288.10911369
Epoch Year2021
RAAN55.3842
Inclination97.5261
Eccentricity0.0011443
Argument of Perigee217.3338
Mean Anonmoly315.961
Mean Motion15.13073526
Decay Rate3.332E-05
L11 48916U 21059AP 21288.10911369 .00003332 00000-0 19180-3 0 9999
L22 48916 97.5261 55.3842 0011443 217.3338 315.9610 15.13073526 16822

Live tracking and technical data element details for ICEYE-X13 (NORAD 48916). ICEYE-X13 can be tracked NOW for your location showing map with azimuth and elevation plus other details from your city location.

Track the satellite on the map from your city or location and see movement details for azimuth, elevation, latitude, longitude, range, height, and movement on the map or in text.







IsCatalogInMostPopularTable: catalog: 48916, numindb: 19
Update: records affected: 1



GetName: 48916 ICEYE-X13

Hit Count: updated at: Tue, 19 Oct 2021 08:07:42 GMT